Weather History for KMDH - October, 2012

Change the Weather History Date:

Saturday, October 6, 2012

  Actual Average Record
Temperature  
Mean Temperature 44 °F -  
Max Temperature 54 °F 74 °F 91 °F (1916)
Min Temperature 36 °F 47 °F 29 °F (1980)
Degree Days  
Heating Degree Days 21    
Moisture  
Dew Point 35 °F    
Average Humidity 72    
Maximum Humidity 97    
Minimum Humidity 47    
Precipitation  
Precipitation 0.00 in - - ()
Sea Level Pressure  
Sea Level Pressure 30.23 in    
Wind  
Wind Speed 6 mph (NNW)    
Max Wind Speed 12 mph    
Max Gust Speed -    
Visibility 10 miles    
Events      
Averages and records for this station are not official NWS values.
T = Trace of Precipitation, MM = Missing Value Source: NWS Daily Summary

Daily Weather History Graph

Daily Weather History Graph

Search for Another Location

Airport or City:

Trip Planner

Search our weather history database for the weather conditions in past years. The results will help you decide how hot, cold, wet, or windy it might be!

Date:

Astronomy

Oct. 06, 2012 Rise Set
Actual Time 6:57 AM CDT 6:31 PM CDT
Civil Twilight 6:31 AM CDT 6:57 PM CDT
Nautical Twilight 6:00 AM CDT 7:28 PM CDT
Astronomical Twilight 5:30 AM CDT 7:58 PM CDT
Moon 10:52 PM CDT (10/6) 12:47 PM CDT (10/6)
Length of Visible Light 12h 26m
Length of Day
11h 34m
Waning Gibbous, 65% of the Moon is Illuminated
Oct 6
Waning Gibbous
Oct 8
Last Quarter
Oct 15
New
Oct 21
First Quarter
Oct 29
Full

Hourly Weather History & Observations

Time (CDT) Temp. Windchill Dew Point Humidity Pressure Visibility Wind Dir Wind Speed Gust Speed Precip Events Conditions
12:52 AM 41.0 °F 36.4 °F 39.0 °F 93% 30.20 in 10.0 mi NNW 6.9 mph - N/A   Clear
1:52 AM 39.9 °F 35.8 °F 37.9 °F 93% 30.22 in 10.0 mi NW 5.8 mph - N/A   Clear
2:52 AM 39.0 °F 34.0 °F 37.0 °F 93% 30.22 in 10.0 mi NW 6.9 mph - N/A   Clear
3:52 AM 37.0 °F 34.5 °F 35.1 °F 93% 30.21 in 10.0 mi NNW 3.5 mph - N/A   Clear
4:52 AM 36.0 °F 32.1 °F 34.0 °F 93% 30.23 in 10.0 mi West 4.6 mph - N/A   Clear
5:52 AM 36.0 °F 33.3 °F 35.1 °F 97% 30.25 in 10.0 mi West 3.5 mph - N/A   Clear
7:52 AM 37.9 °F - 35.1 °F 89% 30.25 in 10.0 mi Calm Calm - N/A   Clear
8:52 AM 41.0 °F 39.0 °F 37.0 °F 86% 30.25 in 10.0 mi North 3.5 mph - N/A   Clear
9:52 AM 44.1 °F 41.5 °F 37.0 °F 76% 30.27 in 10.0 mi NNE 4.6 mph - N/A   Clear
10:52 AM 48.0 °F - 35.1 °F 61% 30.27 in 10.0 mi NNE 3.5 mph - N/A   Clear
11:52 AM 51.1 °F - 35.1 °F 54% 30.25 in 10.0 mi Variable 4.6 mph - N/A   Clear
12:52 PM 52.0 °F - 32.0 °F 47% 30.25 in 10.0 mi Variable 4.6 mph - N/A   Clear
1:52 PM 52.0 °F - 33.1 °F 49% 30.23 in 10.0 mi NNW 6.9 mph - N/A   Clear
2:52 PM 51.1 °F - 32.0 °F 48% 30.22 in 10.0 mi North 11.5 mph - N/A   Scattered Clouds
3:52 PM 52.0 °F - 33.1 °F 49% 30.21 in 10.0 mi NNW 6.9 mph - N/A   Overcast
4:52 PM 50.0 °F - 33.1 °F 52% 30.21 in 10.0 mi NNW 9.2 mph - N/A   Overcast
5:52 PM 48.9 °F - 34.0 °F 56% 30.21 in 10.0 mi NNW 8.1 mph - N/A   Overcast
6:52 PM 46.9 °F - 34.0 °F 61% 30.20 in 10.0 mi North 6.9 mph - 0.00 in   Overcast
7:52 PM 46.0 °F 43.9 °F 35.1 °F 66% 30.23 in 10.0 mi WNW 4.6 mph - 0.00 in   Overcast
8:52 PM 46.0 °F 43.9 °F 37.0 °F 71% 30.24 in 10.0 mi NW 4.6 mph - N/A   Overcast
9:52 PM 45.0 °F 43.5 °F 37.9 °F 76% 30.24 in 10.0 mi NNW 3.5 mph - N/A   Overcast
10:52 PM 45.0 °F 40.6 °F 37.9 °F 76% 30.23 in 10.0 mi NNW 8.1 mph - N/A   Overcast
11:52 PM 45.0 °F 41.2 °F 35.1 °F 68% 30.23 in 10.0 mi North 6.9 mph - N/A   Overcast